STARLINK-3083 (49158 NORAD) Tracking and Keplerian Element Data

This shows tracking and keplerian element data for the satellite.

Feedback or suggestion? Click here.




ElementValue
Catalog49158
NameSTARLINK-3083
Epoch Orbit806
Epoch Day300.83334491
Epoch Year2021
RAAN3.9741
Inclination70.0011
Eccentricity0.0004052
Argument of Perigee293.6189
Mean Anonmoly77.1795
Mean Motion15.69762838
Decay Rate-0.00083746
L11 49158U 21082AE 21300.83334491 -.00083746 00000-0 -70624-3 0 9993
L22 49158 70.0011 3.9741 0004052 293.6189 77.1795 15.69762838 8066

Live tracking and technical data element details for STARLINK-3083 (NORAD 49158). STARLINK-3083 can be tracked NOW for your location showing map with azimuth and elevation plus other details from your city location.

Track the satellite on the map from your city or location and see movement details for azimuth, elevation, latitude, longitude, range, height, and movement on the map or in text.







IsCatalogInMostPopularTable: catalog: 49158, numindb: 9
Update: records affected: 1



GetName: 49158 STARLINK-3083

Hit Count: updated at: Thu, 28 Oct 2021 12:13:22 GMT